Year,Month,Day,Hour,Minute,Value (Times are PST for temperature in C)
2014,05,03,00,00,10.80
2014,05,03,00,01,10.80
2014,05,03,00,02,10.80
2014,05,03,00,03,10.80
2014,05,03,00,04,10.80
2014,05,03,00,05,10.80
2014,05,03,00,06,10.80
2014,05,03,00,07,10.80
2014,05,03,00,08,10.80
2014,05,03,00,09,10.80
2014,05,03,00,10,10.80
2014,05,03,00,11,10.80
2014,05,03,00,12,10.80
2014,05,03,00,13,10.80
2014,05,03,00,14,10.80
2014,05,03,00,15,10.80
2014,05,03,00,16,10.80
2014,05,03,00,17,10.80
2014,05,03,00,18,10.80
2014,05,03,00,19,10.80
2014,05,03,00,20,10.70
2014,05,03,00,21,10.70
2014,05,03,00,22,10.70
2014,05,03,00,23,10.70
2014,05,03,00,24,10.70
2014,05,03,00,25,10.70
2014,05,03,00,26,10.70
2014,05,03,00,27,10.70
2014,05,03,00,28,10.70
2014,05,03,00,29,10.80
2014,05,03,00,30,10.80
2014,05,03,00,31,10.80
2014,05,03,00,32,10.80
2014,05,03,00,33,10.80
2014,05,03,00,34,10.80
2014,05,03,00,35,10.80
2014,05,03,00,36,10.80
2014,05,03,00,37,10.70
2014,05,03,00,38,10.70
2014,05,03,00,39,10.70
2014,05,03,00,40,10.70
2014,05,03,00,41,10.70
2014,05,03,00,42,10.70
2014,05,03,00,43,10.70
2014,05,03,00,44,10.70
2014,05,03,00,45,10.70
2014,05,03,00,46,10.60
2014,05,03,00,47,10.60
2014,05,03,00,48,10.60
2014,05,03,00,49,10.60
2014,05,03,00,50,10.60
2014,05,03,00,51,10.60
2014,05,03,00,52,10.60
2014,05,03,00,53,10.60
2014,05,03,00,54,10.60
2014,05,03,00,55,10.60
2014,05,03,00,56,10.60
2014,05,03,00,57,10.60
2014,05,03,00,58,10.60
2014,05,03,00,59,10.60
2014,05,03,01,00,10.60
2014,05,03,01,01,10.50
2014,05,03,01,02,10.50
2014,05,03,01,03,10.50
2014,05,03,01,04,10.50
2014,05,03,01,05,10.50
2014,05,03,01,06,10.50
2014,05,03,01,07,10.50
2014,05,03,01,08,10.50
2014,05,03,01,09,10.40
2014,05,03,01,10,10.50
2014,05,03,01,11,10.40
2014,05,03,01,12,10.40
2014,05,03,01,13,10.40
2014,05,03,01,14,10.40
2014,05,03,01,15,10.40
2014,05,03,01,16,10.40
2014,05,03,01,17,10.40
2014,05,03,01,18,10.40
2014,05,03,01,19,10.30
2014,05,03,01,20,10.30
2014,05,03,01,21,10.30
2014,05,03,01,22,10.30
2014,05,03,01,23,10.30
2014,05,03,01,24,10.30
2014,05,03,01,25,10.30
2014,05,03,01,26,10.30
2014,05,03,01,27,10.30
2014,05,03,01,28,10.30
2014,05,03,01,29,10.30
2014,05,03,01,30,10.30
2014,05,03,01,31,10.30
2014,05,03,01,32,10.30
2014,05,03,01,33,10.30
2014,05,03,01,34,10.20
2014,05,03,01,35,10.30
2014,05,03,01,36,10.20
2014,05,03,01,37,10.30
2014,05,03,01,38,10.30
2014,05,03,01,39,10.30
2014,05,03,01,40,10.30
2014,05,03,01,41,10.30
2014,05,03,01,42,10.30
2014,05,03,01,43,10.30
2014,05,03,01,44,10.30
2014,05,03,01,45,10.30
2014,05,03,01,46,10.30
2014,05,03,01,47,10.40
2014,05,03,01,48,10.30
2014,05,03,01,49,10.40
2014,05,03,01,50,10.40
2014,05,03,01,51,10.30
2014,05,03,01,52,10.30
2014,05,03,01,53,10.30
2014,05,03,01,54,10.30
2014,05,03,01,55,10.30
2014,05,03,01,56,10.30
2014,05,03,01,57,10.30
2014,05,03,01,58,10.30
2014,05,03,01,59,10.20
2014,05,03,02,00,10.20
2014,05,03,02,01,10.20
2014,05,03,02,02,10.20
2014,05,03,02,03,10.10
2014,05,03,02,04,10.10
2014,05,03,02,05,10.10
2014,05,03,02,06,10.10
2014,05,03,02,07,10.00
2014,05,03,02,08,10.00
2014,05,03,02,09,10.00
2014,05,03,02,10,10.00
2014,05,03,02,11,10.00
2014,05,03,02,12,9.90
2014,05,03,02,13,9.90
2014,05,03,02,14,9.90
2014,05,03,02,15,9.90
2014,05,03,02,16,9.90
2014,05,03,02,17,9.90
2014,05,03,02,18,9.80
2014,05,03,02,19,9.80
2014,05,03,02,20,9.80
2014,05,03,02,21,9.80
2014,05,03,02,22,9.80
2014,05,03,02,23,9.80
2014,05,03,02,24,9.80
2014,05,03,02,25,9.80
2014,05,03,02,26,9.70
2014,05,03,02,27,9.70
2014,05,03,02,28,9.70
2014,05,03,02,29,9.70
2014,05,03,02,30,9.70
2014,05,03,02,31,9.70
2014,05,03,02,32,9.70
2014,05,03,02,33,9.70
2014,05,03,02,34,9.70
2014,05,03,02,35,9.70
2014,05,03,02,36,9.70
2014,05,03,02,37,9.70
2014,05,03,02,38,9.70
2014,05,03,02,39,9.70
2014,05,03,02,40,9.60
2014,05,03,02,41,9.60
2014,05,03,02,42,9.60
2014,05,03,02,43,9.60
2014,05,03,02,44,9.60
2014,05,03,02,45,9.50
2014,05,03,02,46,9.50
2014,05,03,02,47,9.50
2014,05,03,02,48,9.40
2014,05,03,02,49,9.40
2014,05,03,02,50,9.40
2014,05,03,02,51,9.40
2014,05,03,02,52,9.30
2014,05,03,02,53,9.30
2014,05,03,02,54,9.30
2014,05,03,02,55,9.30
2014,05,03,02,56,9.20
2014,05,03,02,57,9.20
2014,05,03,02,58,9.20
2014,05,03,02,59,9.10
2014,05,03,03,00,9.10
2014,05,03,03,01,9.10
2014,05,03,03,02,9.10
2014,05,03,03,03,9.00
2014,05,03,03,04,9.00
2014,05,03,03,05,9.00
2014,05,03,03,06,8.90
2014,05,03,03,07,8.90
2014,05,03,03,08,8.90
2014,05,03,03,09,8.90
2014,05,03,03,10,8.90
2014,05,03,03,11,8.90
2014,05,03,03,12,8.90
2014,05,03,03,13,8.90
2014,05,03,03,14,8.90
2014,05,03,03,15,8.90
2014,05,03,03,16,8.90
2014,05,03,03,17,8.90
2014,05,03,03,18,8.90
2014,05,03,03,19,8.90
2014,05,03,03,20,8.90
2014,05,03,03,21,8.80
2014,05,03,03,22,8.80
2014,05,03,03,23,8.80
2014,05,03,03,24,8.80
2014,05,03,03,25,8.80
2014,05,03,03,26,8.80
2014,05,03,03,27,8.80
2014,05,03,03,28,8.80
2014,05,03,03,29,8.70
2014,05,03,03,30,8.70
2014,05,03,03,31,8.70
2014,05,03,03,32,8.60
2014,05,03,03,33,8.60
2014,05,03,03,34,8.50
2014,05,03,03,35,8.50
2014,05,03,03,36,8.50
2014,05,03,03,37,8.40
2014,05,03,03,38,8.40
2014,05,03,03,39,8.40
2014,05,03,03,40,8.40
2014,05,03,03,41,8.40
2014,05,03,03,42,8.40
2014,05,03,03,43,8.40
2014,05,03,03,44,8.40
2014,05,03,03,45,8.30
2014,05,03,03,46,8.30
2014,05,03,03,47,8.30
2014,05,03,03,48,8.30
2014,05,03,03,49,8.30
2014,05,03,03,50,8.30
2014,05,03,03,51,8.20
2014,05,03,03,52,8.20
2014,05,03,03,53,8.10
2014,05,03,03,54,8.10
2014,05,03,03,55,8.00
2014,05,03,03,56,7.90
2014,05,03,03,57,7.90
2014,05,03,03,58,7.80
2014,05,03,03,59,7.80
2014,05,03,04,00,7.70
2014,05,03,04,01,7.70
2014,05,03,04,02,7.60
2014,05,03,04,03,7.60
2014,05,03,04,04,7.60
2014,05,03,04,05,7.50
2014,05,03,04,06,7.50
2014,05,03,04,07,7.40
2014,05,03,04,08,7.40
2014,05,03,04,09,7.40
2014,05,03,04,10,7.30
2014,05,03,04,11,7.30
2014,05,03,04,12,7.20
2014,05,03,04,13,7.20
2014,05,03,04,14,7.20
2014,05,03,04,15,7.20
2014,05,03,04,16,7.20
2014,05,03,04,17,7.20
2014,05,03,04,18,7.10
2014,05,03,04,19,7.10
2014,05,03,04,20,7.10
2014,05,03,04,21,7.10
2014,05,03,04,22,7.10
2014,05,03,04,23,7.00
2014,05,03,04,24,7.00
2014,05,03,04,25,7.00
2014,05,03,04,26,7.00
2014,05,03,04,27,6.90
2014,05,03,04,28,6.90
2014,05,03,04,29,6.90
2014,05,03,04,30,6.90
2014,05,03,04,31,6.90
2014,05,03,04,32,6.90
2014,05,03,04,33,6.90
2014,05,03,04,34,6.90
2014,05,03,04,35,6.90
2014,05,03,04,36,6.90
2014,05,03,04,37,6.80
2014,05,03,04,38,6.80
2014,05,03,04,39,6.80
2014,05,03,04,40,6.80
2014,05,03,04,41,6.80
2014,05,03,04,42,6.80
2014,05,03,04,43,6.80
2014,05,03,04,44,6.80
2014,05,03,04,45,6.80
2014,05,03,04,46,6.80
2014,05,03,04,47,6.80
2014,05,03,04,48,6.80
2014,05,03,04,49,6.80
2014,05,03,04,50,6.80
2014,05,03,04,51,6.80
2014,05,03,04,52,6.80
2014,05,03,04,53,6.80
2014,05,03,04,54,6.80
2014,05,03,04,55,6.80
2014,05,03,04,56,6.80
2014,05,03,04,57,6.80
2014,05,03,04,58,6.80
2014,05,03,04,59,6.80
2014,05,03,05,00,6.80
2014,05,03,05,01,6.80
2014,05,03,05,02,6.90
2014,05,03,05,03,6.90
2014,05,03,05,04,7.00
2014,05,03,05,05,7.00
2014,05,03,05,06,7.10
2014,05,03,05,07,7.10
2014,05,03,05,08,7.10
2014,05,03,05,09,7.10
2014,05,03,05,10,7.10
2014,05,03,05,11,7.10
2014,05,03,05,12,7.10
2014,05,03,05,13,7.10
2014,05,03,05,14,7.10
2014,05,03,05,15,7.10
2014,05,03,05,16,7.10
2014,05,03,05,17,7.10
2014,05,03,05,18,7.10
2014,05,03,05,19,7.10
2014,05,03,05,20,7.00
2014,05,03,05,21,7.00
2014,05,03,05,22,7.00
2014,05,03,05,23,7.00
2014,05,03,05,24,7.00
2014,05,03,05,25,7.00
2014,05,03,05,26,6.90
2014,05,03,05,27,6.90
2014,05,03,05,28,6.90
2014,05,03,05,29,6.90
2014,05,03,05,30,6.90
2014,05,03,05,31,6.90
2014,05,03,05,32,6.90
2014,05,03,05,33,6.80
2014,05,03,05,34,6.80
2014,05,03,05,35,6.80
2014,05,03,05,36,6.80
2014,05,03,05,37,6.80
2014,05,03,05,38,6.80
2014,05,03,05,39,6.80
2014,05,03,05,40,6.80
2014,05,03,05,41,6.80
2014,05,03,05,42,6.80
2014,05,03,05,43,6.80
2014,05,03,05,44,6.80
2014,05,03,05,45,6.80
2014,05,03,05,46,6.80
2014,05,03,05,47,6.80
2014,05,03,05,48,6.80
2014,05,03,05,49,6.80
2014,05,03,05,50,6.80
2014,05,03,05,51,6.80
2014,05,03,05,52,6.80
2014,05,03,05,53,6.80
2014,05,03,05,54,6.80
2014,05,03,05,55,6.90
2014,05,03,05,56,6.90
2014,05,03,05,57,6.90
2014,05,03,05,58,6.90
2014,05,03,05,59,6.90
2014,05,03,06,00,6.90
2014,05,03,06,01,6.90
2014,05,03,06,02,6.90
2014,05,03,06,03,6.90
2014,05,03,06,04,6.90
2014,05,03,06,05,6.90
2014,05,03,06,06,6.90
2014,05,03,06,07,6.90
2014,05,03,06,08,7.00
2014,05,03,06,09,7.00
2014,05,03,06,10,7.00
2014,05,03,06,11,7.00
2014,05,03,06,12,7.10
2014,05,03,06,13,7.10
2014,05,03,06,14,7.10
2014,05,03,06,15,7.10
2014,05,03,06,16,7.20
2014,05,03,06,17,7.20
2014,05,03,06,18,7.20
2014,05,03,06,19,7.20
2014,05,03,06,20,7.20
2014,05,03,06,21,7.20
2014,05,03,06,22,7.20
2014,05,03,06,23,7.20
2014,05,03,06,24,7.30
2014,05,03,06,25,7.30
2014,05,03,06,26,7.30
2014,05,03,06,27,7.30
2014,05,03,06,28,7.30
2014,05,03,06,29,7.30
2014,05,03,06,30,7.40
2014,05,03,06,31,7.40
2014,05,03,06,32,7.40
2014,05,03,06,33,7.40
2014,05,03,06,34,7.40
2014,05,03,06,35,7.40
2014,05,03,06,36,7.40
2014,05,03,06,37,7.50
2014,05,03,06,38,7.50
2014,05,03,06,39,7.50
2014,05,03,06,40,7.50
2014,05,03,06,41,7.60
2014,05,03,06,42,7.60
2014,05,03,06,43,7.60
2014,05,03,06,44,7.60
2014,05,03,06,45,7.60
2014,05,03,06,46,7.60
2014,05,03,06,47,7.60
2014,05,03,06,48,7.70
2014,05,03,06,49,7.70
2014,05,03,06,50,7.70
2014,05,03,06,51,7.70
2014,05,03,06,52,7.70
2014,05,03,06,53,7.70
2014,05,03,06,54,7.70
2014,05,03,06,55,7.70
2014,05,03,06,56,7.80
2014,05,03,06,57,7.80
2014,05,03,06,58,7.80
2014,05,03,06,59,7.80
2014,05,03,07,00,7.80
2014,05,03,07,01,7.90
2014,05,03,07,02,7.90
2014,05,03,07,03,7.90
2014,05,03,07,04,8.00
2014,05,03,07,05,8.00
2014,05,03,07,06,8.00
2014,05,03,07,07,8.10
2014,05,03,07,08,8.10
2014,05,03,07,09,8.10
2014,05,03,07,10,8.20
2014,05,03,07,11,8.20
2014,05,03,07,12,8.20
2014,05,03,07,13,8.20
2014,05,03,07,14,8.30
2014,05,03,07,15,8.30
2014,05,03,07,16,8.30
2014,05,03,07,17,8.30
2014,05,03,07,18,8.40
2014,05,03,07,19,8.40
2014,05,03,07,20,8.40
2014,05,03,07,21,8.40
2014,05,03,07,22,8.40
2014,05,03,07,23,8.40
2014,05,03,07,24,8.50
2014,05,03,07,25,8.50
2014,05,03,07,26,8.60
2014,05,03,07,27,8.60
2014,05,03,07,28,8.60
2014,05,03,07,29,8.60
2014,05,03,07,30,8.70
2014,05,03,07,31,8.70
2014,05,03,07,32,8.70
2014,05,03,07,33,8.70
2014,05,03,07,34,8.80
2014,05,03,07,35,8.80
2014,05,03,07,36,8.80
2014,05,03,07,37,8.80
2014,05,03,07,38,8.90
2014,05,03,07,39,8.90
2014,05,03,07,40,8.90
2014,05,03,07,41,8.90
2014,05,03,07,42,9.00
2014,05,03,07,43,9.00
2014,05,03,07,44,9.00
2014,05,03,07,45,9.10
2014,05,03,07,46,9.10
2014,05,03,07,47,9.10
2014,05,03,07,48,9.10
2014,05,03,07,49,9.10
2014,05,03,07,50,9.20
2014,05,03,07,51,9.20
2014,05,03,07,52,9.20
2014,05,03,07,53,9.20
2014,05,03,07,54,9.20
2014,05,03,07,55,9.20
2014,05,03,07,56,9.10
2014,05,03,07,57,9.10
2014,05,03,07,58,9.10
2014,05,03,07,59,9.10
2014,05,03,08,00,9.10
2014,05,03,08,01,9.10
2014,05,03,08,02,9.10
2014,05,03,08,03,9.10
2014,05,03,08,04,9.10
2014,05,03,08,05,9.10
2014,05,03,08,06,9.00
2014,05,03,08,07,9.00
2014,05,03,08,08,9.00
2014,05,03,08,09,9.00
2014,05,03,08,10,9.00
2014,05,03,08,11,9.00
2014,05,03,08,12,9.00
2014,05,03,08,13,9.00
2014,05,03,08,14,9.00
2014,05,03,08,15,9.00
2014,05,03,08,16,9.00
2014,05,03,08,17,9.00
2014,05,03,08,18,9.00
2014,05,03,08,19,9.00
2014,05,03,08,20,9.00
2014,05,03,08,21,9.10
2014,05,03,08,22,9.10
2014,05,03,08,23,9.10
2014,05,03,08,24,9.10
2014,05,03,08,25,9.10
2014,05,03,08,26,9.10
2014,05,03,08,27,9.10
2014,05,03,08,28,9.10
2014,05,03,08,29,9.10
2014,05,03,08,30,9.10
2014,05,03,08,31,9.10
2014,05,03,08,32,9.10
2014,05,03,08,33,9.10
2014,05,03,08,34,9.20
2014,05,03,08,35,9.20
2014,05,03,08,36,9.20
2014,05,03,08,37,9.20
2014,05,03,08,38,9.20
2014,05,03,08,39,9.20
2014,05,03,08,40,9.20
2014,05,03,08,41,9.30
2014,05,03,08,42,9.30
2014,05,03,08,43,9.30
2014,05,03,08,44,9.30
2014,05,03,08,45,9.30
2014,05,03,08,46,9.30
2014,05,03,08,47,9.30
2014,05,03,08,48,9.30
2014,05,03,08,49,9.30
2014,05,03,08,50,9.30
2014,05,03,08,51,9.30
2014,05,03,08,52,9.30
2014,05,03,08,53,9.30
2014,05,03,08,54,9.30
2014,05,03,08,55,9.30
2014,05,03,08,56,9.40
2014,05,03,08,57,9.40
2014,05,03,08,58,9.40
2014,05,03,08,59,9.50
2014,05,03,09,00,9.50
2014,05,03,09,01,9.50
2014,05,03,09,02,9.60
2014,05,03,09,03,9.60
2014,05,03,09,04,9.70
2014,05,03,09,05,9.70
2014,05,03,09,06,9.70
2014,05,03,09,07,9.70
2014,05,03,09,08,9.80
2014,05,03,09,09,9.80
2014,05,03,09,10,9.80
2014,05,03,09,11,9.90
2014,05,03,09,12,9.90
2014,05,03,09,13,9.90
2014,05,03,09,14,10.00
2014,05,03,09,15,10.00
2014,05,03,09,16,10.00
2014,05,03,09,17,10.00
2014,05,03,09,18,10.00
2014,05,03,09,19,10.10
2014,05,03,09,20,10.10
2014,05,03,09,21,10.10
2014,05,03,09,22,10.10
2014,05,03,09,23,10.00
2014,05,03,09,24,10.10
2014,05,03,09,25,10.10
2014,05,03,09,26,10.10
2014,05,03,09,27,10.10
2014,05,03,09,28,10.10
2014,05,03,09,29,10.10
2014,05,03,09,30,10.10
2014,05,03,09,31,10.10
2014,05,03,09,32,10.10
2014,05,03,09,33,10.10
2014,05,03,09,34,10.10
2014,05,03,09,35,10.20
2014,05,03,09,36,10.20
2014,05,03,09,37,10.20
2014,05,03,09,38,10.20
2014,05,03,09,39,10.20
2014,05,03,09,40,10.30
2014,05,03,09,41,10.30
2014,05,03,09,42,10.30
2014,05,03,09,43,10.40
2014,05,03,09,44,10.40
2014,05,03,09,45,10.40
2014,05,03,09,46,10.40
2014,05,03,09,47,10.40
2014,05,03,09,48,10.40
2014,05,03,09,49,10.40
2014,05,03,09,50,10.40
2014,05,03,09,51,10.40
2014,05,03,09,52,10.50
2014,05,03,09,53,10.50
2014,05,03,09,54,10.60
2014,05,03,09,55,10.60
2014,05,03,09,56,10.60
2014,05,03,09,57,10.70
2014,05,03,09,58,10.80
2014,05,03,09,59,10.80
2014,05,03,10,00,10.80
2014,05,03,10,01,10.90
2014,05,03,10,02,10.90
2014,05,03,10,03,11.00
2014,05,03,10,04,11.00
2014,05,03,10,05,11.10
2014,05,03,10,06,11.20
2014,05,03,10,07,11.20
2014,05,03,10,08,11.30
2014,05,03,10,09,11.30
2014,05,03,10,10,11.30
2014,05,03,10,11,11.40
2014,05,03,10,12,11.40
2014,05,03,10,13,11.40
2014,05,03,10,14,11.50
2014,05,03,10,15,11.50
2014,05,03,10,16,11.60
2014,05,03,10,17,11.60
2014,05,03,10,18,11.60
2014,05,03,10,19,11.50
2014,05,03,10,20,11.50
2014,05,03,10,21,11.40
2014,05,03,10,22,11.40
2014,05,03,10,23,11.30
2014,05,03,10,24,11.30
2014,05,03,10,25,11.20
2014,05,03,10,26,11.20
2014,05,03,10,27,11.20
2014,05,03,10,28,11.20
2014,05,03,10,29,11.20
2014,05,03,10,30,11.10
2014,05,03,10,31,11.10
2014,05,03,10,32,11.10
2014,05,03,10,33,11.10
2014,05,03,10,34,11.10
2014,05,03,10,35,11.00
2014,05,03,10,36,11.00
2014,05,03,10,37,10.90
2014,05,03,10,38,10.80
2014,05,03,10,39,10.80
2014,05,03,10,40,10.80
2014,05,03,10,41,10.80
2014,05,03,10,42,10.70
2014,05,03,10,43,10.70
2014,05,03,10,44,10.60
2014,05,03,10,45,10.60
2014,05,03,10,46,10.60
2014,05,03,10,47,10.50
2014,05,03,10,48,10.50
2014,05,03,10,49,10.50
2014,05,03,10,50,10.40
2014,05,03,10,51,10.40
2014,05,03,10,52,10.30
2014,05,03,10,53,10.30
2014,05,03,10,54,10.30
2014,05,03,10,55,10.30
2014,05,03,10,56,10.30
2014,05,03,10,57,10.30
2014,05,03,10,58,10.30
2014,05,03,10,59,10.30
2014,05,03,11,00,10.30
2014,05,03,11,01,10.30
2014,05,03,11,02,10.30
2014,05,03,11,03,10.30
2014,05,03,11,04,10.20
2014,05,03,11,05,10.20
2014,05,03,11,06,10.30
2014,05,03,11,07,10.30
2014,05,03,11,08,10.30
2014,05,03,11,09,10.20
2014,05,03,11,10,10.20
2014,05,03,11,11,10.20
2014,05,03,11,12,10.20
2014,05,03,11,13,10.10
2014,05,03,11,14,10.10
2014,05,03,11,15,10.10
2014,05,03,11,16,10.10
2014,05,03,11,17,10.10
2014,05,03,11,18,10.10
2014,05,03,11,19,10.10
2014,05,03,11,20,10.10
2014,05,03,11,21,10.20
2014,05,03,11,22,10.20
2014,05,03,11,23,10.20
2014,05,03,11,24,10.20
2014,05,03,11,25,10.20
2014,05,03,11,26,10.20
2014,05,03,11,27,10.30
2014,05,03,11,28,10.30
2014,05,03,11,29,10.30
2014,05,03,11,30,10.30
2014,05,03,11,31,10.30
2014,05,03,11,32,10.40
2014,05,03,11,33,10.40
2014,05,03,11,34,10.40
2014,05,03,11,35,10.40
2014,05,03,11,36,10.40
2014,05,03,11,37,10.40
2014,05,03,11,38,10.40
2014,05,03,11,39,10.50
2014,05,03,11,40,10.50
2014,05,03,11,41,10.50
2014,05,03,11,42,10.50
2014,05,03,11,43,10.60
2014,05,03,11,44,10.60
2014,05,03,11,45,10.60
2014,05,03,11,46,10.60
2014,05,03,11,47,10.70
2014,05,03,11,48,10.70
2014,05,03,11,49,10.70
2014,05,03,11,50,10.70
2014,05,03,11,51,10.80
2014,05,03,11,52,10.70
2014,05,03,11,53,10.70
2014,05,03,11,54,10.70
2014,05,03,11,55,10.80
2014,05,03,11,56,10.80
2014,05,03,11,57,10.80
2014,05,03,11,58,10.80
2014,05,03,11,59,10.80
2014,05,03,12,00,10.80
2014,05,03,12,01,10.80
2014,05,03,12,02,10.80
2014,05,03,12,03,10.80
2014,05,03,12,04,10.80
2014,05,03,12,05,10.80
2014,05,03,12,06,10.80
2014,05,03,12,07,10.80
2014,05,03,12,08,10.80
2014,05,03,12,09,10.80
2014,05,03,12,10,10.80
2014,05,03,12,11,10.70
2014,05,03,12,12,10.70
2014,05,03,12,13,10.60
2014,05,03,12,14,10.60
2014,05,03,12,15,10.60
2014,05,03,12,16,10.50
2014,05,03,12,17,10.50
2014,05,03,12,18,10.50
2014,05,03,12,19,10.40
2014,05,03,12,20,10.40
2014,05,03,12,21,10.40
2014,05,03,12,22,10.40
2014,05,03,12,23,10.40
2014,05,03,12,24,10.40
2014,05,03,12,25,10.40
2014,05,03,12,26,10.40
2014,05,03,12,27,10.40
2014,05,03,12,28,10.40
2014,05,03,12,29,10.40
2014,05,03,12,30,10.40
2014,05,03,12,31,10.40
2014,05,03,12,32,10.40
2014,05,03,12,33,10.40
2014,05,03,12,34,10.30
2014,05,03,12,35,10.40
2014,05,03,12,36,10.30
2014,05,03,12,37,10.30
2014,05,03,12,38,10.30
2014,05,03,12,39,10.40
2014,05,03,12,40,10.40
2014,05,03,12,41,10.50
2014,05,03,12,42,10.50
2014,05,03,12,43,10.50
2014,05,03,12,44,10.50
2014,05,03,12,45,10.50
2014,05,03,12,46,10.50
2014,05,03,12,47,10.50
2014,05,03,12,48,10.40
2014,05,03,12,49,10.40
2014,05,03,12,50,10.40
2014,05,03,12,51,10.40
2014,05,03,12,52,10.40
2014,05,03,12,53,10.40
2014,05,03,12,54,10.40
2014,05,03,12,55,10.40
2014,05,03,12,56,10.40
2014,05,03,12,57,10.40
2014,05,03,12,58,10.40
2014,05,03,12,59,10.40
2014,05,03,13,00,10.40
2014,05,03,13,01,10.40
2014,05,03,13,02,10.40
2014,05,03,13,03,10.40
2014,05,03,13,04,10.40
2014,05,03,13,05,10.40
2014,05,03,13,06,10.50
2014,05,03,13,07,10.50
2014,05,03,13,08,10.50
2014,05,03,13,09,10.50
2014,05,03,13,10,10.60
2014,05,03,13,11,10.60
2014,05,03,13,12,10.70
2014,05,03,13,13,10.70
2014,05,03,13,14,10.70
2014,05,03,13,15,10.70
2014,05,03,13,16,10.70
2014,05,03,13,17,10.70
2014,05,03,13,18,10.70
2014,05,03,13,19,10.70
2014,05,03,13,20,10.70
2014,05,03,13,21,10.70
2014,05,03,13,22,10.70
2014,05,03,13,23,10.70
2014,05,03,13,24,10.80
2014,05,03,13,25,10.80
2014,05,03,13,26,10.80
2014,05,03,13,27,10.80
2014,05,03,13,28,10.80
2014,05,03,13,29,10.80
2014,05,03,13,30,10.70
2014,05,03,13,31,10.70
2014,05,03,13,32,10.80
2014,05,03,13,33,10.80
2014,05,03,13,34,10.80
2014,05,03,13,35,10.90
2014,05,03,13,36,10.90
2014,05,03,13,37,10.90
2014,05,03,13,38,10.90
2014,05,03,13,39,10.90
2014,05,03,13,40,10.90
2014,05,03,13,41,10.90
2014,05,03,13,42,10.90
2014,05,03,13,43,11.00
2014,05,03,13,44,11.00
2014,05,03,13,45,11.10
2014,05,03,13,46,11.10
2014,05,03,13,47,11.20
2014,05,03,13,48,11.20
2014,05,03,13,49,11.20
2014,05,03,13,50,11.20
2014,05,03,13,51,11.20
2014,05,03,13,52,11.20
2014,05,03,13,53,11.20
2014,05,03,13,54,11.20
2014,05,03,13,55,11.20
2014,05,03,13,56,11.20
2014,05,03,13,57,11.20
2014,05,03,13,58,11.20
2014,05,03,13,59,11.20
2014,05,03,14,00,11.20
2014,05,03,14,01,11.30
2014,05,03,14,02,11.30
2014,05,03,14,03,11.30
2014,05,03,14,04,11.30
2014,05,03,14,05,11.30
2014,05,03,14,06,11.30
2014,05,03,14,07,11.30
2014,05,03,14,08,11.30
2014,05,03,14,09,11.40
2014,05,03,14,10,11.40
2014,05,03,14,11,11.40
2014,05,03,14,12,11.40
2014,05,03,14,13,11.40
2014,05,03,14,14,11.40
2014,05,03,14,15,11.40
2014,05,03,14,16,11.40
2014,05,03,14,17,11.40
2014,05,03,14,18,11.40
2014,05,03,14,19,11.40
2014,05,03,14,20,11.40
2014,05,03,14,21,11.40
2014,05,03,14,22,11.40
2014,05,03,14,23,11.40
2014,05,03,14,24,11.40
2014,05,03,14,25,11.40
2014,05,03,14,26,11.50
2014,05,03,14,27,11.50
2014,05,03,14,28,11.40
2014,05,03,14,29,11.40
2014,05,03,14,30,11.40
2014,05,03,14,31,11.40
2014,05,03,14,32,11.40
2014,05,03,14,33,11.40
2014,05,03,14,34,11.40
2014,05,03,14,35,11.40
2014,05,03,14,36,11.40
2014,05,03,14,37,11.40
2014,05,03,14,38,11.40
2014,05,03,14,39,11.30
2014,05,03,14,40,11.30
2014,05,03,14,41,11.20
2014,05,03,14,42,11.20
2014,05,03,14,43,11.20
2014,05,03,14,44,11.20
2014,05,03,14,45,11.20
2014,05,03,14,46,11.10
2014,05,03,14,47,11.10
2014,05,03,14,48,11.10
2014,05,03,14,49,11.20
2014,05,03,14,50,11.20
2014,05,03,14,51,11.20
2014,05,03,14,52,11.20
2014,05,03,14,53,11.20
2014,05,03,14,54,11.20
2014,05,03,14,55,11.20
2014,05,03,14,56,11.20
2014,05,03,14,57,11.20
2014,05,03,14,58,11.20
2014,05,03,14,59,11.10
2014,05,03,15,00,11.10
2014,05,03,15,01,11.10
2014,05,03,15,02,11.10
2014,05,03,15,03,11.00
2014,05,03,15,04,11.00
2014,05,03,15,05,10.90
2014,05,03,15,06,10.90
2014,05,03,15,07,10.90
2014,05,03,15,08,10.80
2014,05,03,15,09,10.80
2014,05,03,15,10,10.80
2014,05,03,15,11,10.80
2014,05,03,15,12,10.80
2014,05,03,15,13,10.80
2014,05,03,15,14,10.80
2014,05,03,15,15,10.80
2014,05,03,15,16,10.80
2014,05,03,15,17,10.80
2014,05,03,15,18,10.80
2014,05,03,15,19,10.80
2014,05,03,15,20,10.80
2014,05,03,15,21,10.80
2014,05,03,15,22,10.80
2014,05,03,15,23,10.80
2014,05,03,15,24,10.80
2014,05,03,15,25,10.80
2014,05,03,15,26,10.80
2014,05,03,15,27,10.80
2014,05,03,15,28,10.80
2014,05,03,15,29,10.90
2014,05,03,15,30,10.90
2014,05,03,15,31,10.90
2014,05,03,15,32,10.90
2014,05,03,15,33,10.90
2014,05,03,15,34,10.90
2014,05,03,15,35,10.90
2014,05,03,15,36,10.90
2014,05,03,15,37,10.90
2014,05,03,15,38,10.90
2014,05,03,15,39,10.80
2014,05,03,15,40,10.80
2014,05,03,15,41,10.80
2014,05,03,15,42,10.80
2014,05,03,15,43,10.80
2014,05,03,15,44,10.80
2014,05,03,15,45,10.80
2014,05,03,15,46,10.80
2014,05,03,15,47,10.80
2014,05,03,15,48,10.80
2014,05,03,15,49,10.80
2014,05,03,15,50,10.80
2014,05,03,15,51,10.80
2014,05,03,15,52,10.80
2014,05,03,15,53,10.80
2014,05,03,15,54,10.80
2014,05,03,15,55,10.80
2014,05,03,15,56,10.90
2014,05,03,15,57,10.90
2014,05,03,15,58,10.90
2014,05,03,15,59,10.90
2014,05,03,16,00,11.00
2014,05,03,16,01,11.00
2014,05,03,16,02,11.10
2014,05,03,16,03,11.10
2014,05,03,16,04,11.20
2014,05,03,16,05,11.20
2014,05,03,16,06,11.20
2014,05,03,16,07,11.20
2014,05,03,16,08,11.20
2014,05,03,16,09,11.20
2014,05,03,16,10,11.20
2014,05,03,16,11,11.20
2014,05,03,16,12,11.10
2014,05,03,16,13,11.10
2014,05,03,16,14,11.10
2014,05,03,16,15,11.10
2014,05,03,16,16,11.10
2014,05,03,16,17,11.10
2014,05,03,16,18,11.10
2014,05,03,16,19,11.10
2014,05,03,16,20,11.10
2014,05,03,16,21,11.10
2014,05,03,16,22,11.10
2014,05,03,16,23,11.10
2014,05,03,16,24,11.10
2014,05,03,16,25,11.10
2014,05,03,16,26,11.10
2014,05,03,16,27,11.10
2014,05,03,16,28,11.10
2014,05,03,16,29,11.10
2014,05,03,16,30,11.10
2014,05,03,16,31,11.10
2014,05,03,16,32,11.10
2014,05,03,16,33,11.10
2014,05,03,16,34,11.10
2014,05,03,16,35,11.10
2014,05,03,16,36,11.10
2014,05,03,16,37,11.10
2014,05,03,16,38,11.10
2014,05,03,16,39,11.00
2014,05,03,16,40,11.00
2014,05,03,16,41,11.00
2014,05,03,16,42,11.10
2014,05,03,16,43,11.10
2014,05,03,16,44,11.00
2014,05,03,16,45,11.00
2014,05,03,16,46,11.00
2014,05,03,16,47,11.00
2014,05,03,16,48,10.90
2014,05,03,16,49,10.90
2014,05,03,16,50,10.90
2014,05,03,16,51,10.90
2014,05,03,16,52,10.90
2014,05,03,16,53,10.90
2014,05,03,16,54,10.90
2014,05,03,16,55,10.90
2014,05,03,16,56,10.90
2014,05,03,16,57,10.90
2014,05,03,16,58,10.90
2014,05,03,16,59,10.90
2014,05,03,17,00,10.80
2014,05,03,17,01,10.80
2014,05,03,17,02,10.80
2014,05,03,17,03,10.80
2014,05,03,17,04,10.80
2014,05,03,17,05,10.80
2014,05,03,17,06,10.80
2014,05,03,17,07,10.80
2014,05,03,17,08,10.90
2014,05,03,17,09,10.90
2014,05,03,17,10,10.90
2014,05,03,17,11,10.90
2014,05,03,17,12,10.90
2014,05,03,17,13,10.90
2014,05,03,17,14,10.90
2014,05,03,17,15,11.00
2014,05,03,17,16,11.00
2014,05,03,17,17,11.00
2014,05,03,17,18,11.00
2014,05,03,17,19,11.10
2014,05,03,17,20,11.10
2014,05,03,17,21,11.10
2014,05,03,17,22,11.10
2014,05,03,17,23,11.10
2014,05,03,17,24,11.10
2014,05,03,17,25,11.10
2014,05,03,17,26,11.10
2014,05,03,17,27,11.10
2014,05,03,17,28,11.10
2014,05,03,17,29,11.10
2014,05,03,17,30,11.10
2014,05,03,17,31,11.10
2014,05,03,17,32,11.10
2014,05,03,17,33,11.10
2014,05,03,17,34,11.10
2014,05,03,17,35,11.00
2014,05,03,17,36,11.00
2014,05,03,17,37,11.00